Time,TemperatureF,DewpointF,PressureIn,WindDirection,WindDirectionDegrees,WindSpeedMPH,WindSpeedGustMPH,Humidity,HourlyPrecipIn,Conditions,Clouds,dailyrainin,SoftwareType,DateUTC
2013-08-20 00:01:00,66.6,65.0,29.14,SW,225,2.0,9.0,96,0.00,,,0.00,Rainwise IP-100,2013-08-20 04:01:00,
2013-08-20 00:02:00,66.6,65.0,29.14,SW,225,6.0,9.0,96,0.00,,,0.00,Rainwise IP-100,2013-08-20 04:02:00,
2013-08-20 00:03:00,66.6,65.0,29.14,SSW,202,5.0,9.0,96,0.00,,,0.00,Rainwise IP-100,2013-08-20 04:03:00,
2013-08-20 00:04:00,66.6,65.0,29.14,SW,225,4.0,7.0,96,0.00,,,0.00,Rainwise IP-100,2013-08-20 04:04:00,
2013-08-20 00:08:00,66.6,65.0,29.15,SSW,202,4.0,7.0,96,0.00,,,0.00,Rainwise IP-100,2013-08-20 04:08:00,
2013-08-20 00:14:00,66.6,65.0,29.15,SW,225,4.0,9.0,96,0.00,,,0.00,Rainwise IP-100,2013-08-20 04:14:00,
2013-08-20 00:19:00,66.6,65.0,29.15,SW,225,5.0,9.0,96,0.00,,,0.00,Rainwise IP-100,2013-08-20 04:19:00,
2013-08-20 00:24:00,66.6,65.0,29.15,WSW,247,1.0,7.0,96,0.00,,,0.00,Rainwise IP-100,2013-08-20 04:24:00,
2013-08-20 00:29:00,66.5,65.0,29.14,SSW,202,5.0,8.0,96,0.00,,,0.00,Rainwise IP-100,2013-08-20 04:29:00,
2013-08-20 00:34:00,66.6,65.0,29.15,SW,225,6.0,8.0,96,0.00,,,0.00,Rainwise IP-100,2013-08-20 04:34:00,
2013-08-20 00:39:00,66.6,65.0,29.15,SW,225,4.0,9.0,96,0.00,,,0.00,Rainwise IP-100,2013-08-20 04:39:00,
2013-08-20 00:44:00,66.5,65.0,29.15,SW,225,9.0,9.0,96,0.00,,,0.00,Rainwise IP-100,2013-08-20 04:44:00,
2013-08-20 00:49:00,66.4,65.0,29.15,SW,225,7.0,9.0,96,0.00,,,0.00,Rainwise IP-100,2013-08-20 04:49:00,
2013-08-20 00:54:00,66.5,65.0,29.15,SW,225,4.0,7.0,96,0.00,,,0.00,Rainwise IP-100,2013-08-20 04:54:00,
2013-08-20 00:59:00,66.5,65.0,29.15,SW,225,4.0,7.0,96,0.00,,,0.00,Rainwise IP-100,2013-08-20 04:59:00,
2013-08-20 01:04:00,66.6,65.0,29.15,SW,225,4.0,7.0,96,0.00,,,0.00,Rainwise IP-100,2013-08-20 05:04:00,
2013-08-20 01:09:00,66.4,65.0,29.15,SW,225,4.0,6.0,97,0.00,,,0.00,Rainwise IP-100,2013-08-20 05:09:00,
2013-08-20 01:15:00,66.4,65.0,29.14,SW,225,3.0,5.0,97,0.00,,,0.00,Rainwise IP-100,2013-08-20 05:15:00,
2013-08-20 01:20:00,66.3,66.0,29.15,SW,225,2.0,7.0,98,0.00,,,0.00,Rainwise IP-100,2013-08-20 05:20:00,
2013-08-20 01:25:00,66.1,65.0,29.15,SW,225,2.0,4.0,99,0.00,,,0.00,Rainwise IP-100,2013-08-20 05:25:00,
2013-08-20 01:30:00,65.7,65.0,29.14,SW,225,2.0,4.0,98,0.00,,,0.00,Rainwise IP-100,2013-08-20 05:30:00,
2013-08-20 01:35:00,65.5,65.0,29.14,SW,225,6.0,9.0,98,0.00,,,0.00,Rainwise IP-100,2013-08-20 05:35:00,
2013-08-20 01:40:00,65.3,64.0,29.14,SSW,202,4.0,7.0,98,0.00,,,0.00,Rainwise IP-100,2013-08-20 05:40:00,
2013-08-20 01:45:00,65.1,64.0,29.14,SW,225,3.0,6.0,98,0.00,,,0.00,Rainwise IP-100,2013-08-20 05:45:00,
2013-08-20 01:50:00,64.9,64.0,29.13,SW,225,2.0,6.0,98,0.00,,,0.00,Rainwise IP-100,2013-08-20 05:50:00,
2013-08-20 01:55:00,64.9,64.0,29.13,SSW,202,2.0,4.0,98,0.00,,,0.00,Rainwise IP-100,2013-08-20 05:55:00,
2013-08-20 02:00:00,64.6,64.0,29.13,SSW,202,2.0,4.0,98,0.00,,,0.00,Rainwise IP-100,2013-08-20 06:00:00,
2013-08-20 02:05:00,64.5,64.0,29.13,SSW,202,1.0,6.0,98,0.00,,,0.00,Rainwise IP-100,2013-08-20 06:05:00,
2013-08-20 02:10:00,64.5,64.0,29.13,SW,225,4.0,6.0,98,0.00,,,0.00,Rainwise IP-100,2013-08-20 06:10:00,
2013-08-20 02:16:00,64.3,63.0,29.13,SSW,202,2.0,4.0,98,0.00,,,0.00,Rainwise IP-100,2013-08-20 06:16:00,
2013-08-20 02:21:00,64.1,63.0,29.13,SSW,202,2.0,4.0,98,0.00,,,0.00,Rainwise IP-100,2013-08-20 06:21:00,
2013-08-20 02:26:00,63.9,63.0,29.13,South,180,4.0,5.0,98,0.00,,,0.00,Rainwise IP-100,2013-08-20 06:26:00,
2013-08-20 02:31:00,63.9,63.0,29.13,SSW,202,1.0,5.0,98,0.00,,,0.00,Rainwise IP-100,2013-08-20 06:31:00,
2013-08-20 02:36:00,63.9,63.0,29.13,SSW,202,2.0,4.0,98,0.00,,,0.00,Rainwise IP-100,2013-08-20 06:36:00,
2013-08-20 02:41:00,63.7,63.0,29.13,South,180,4.0,4.0,98,0.00,,,0.00,Rainwise IP-100,2013-08-20 06:41:00,
2013-08-20 02:46:00,63.6,63.0,29.13,SSW,202,1.0,4.0,98,0.00,,,0.00,Rainwise IP-100,2013-08-20 06:46:00,
2013-08-20 02:51:00,63.5,63.0,29.13,South,180,4.0,4.0,98,0.00,,,0.00,Rainwise IP-100,2013-08-20 06:51:00,
2013-08-20 02:56:00,63.5,63.0,29.13,SSW,202,2.0,6.0,98,0.00,,,0.00,Rainwise IP-100,2013-08-20 06:56:00,
2013-08-20 03:01:00,63.5,63.0,29.13,SSW,202,2.0,5.0,98,0.00,,,0.00,Rainwise IP-100,2013-08-20 07:01:00,
2013-08-20 03:06:00,63.3,62.0,29.13,South,180,4.0,4.0,98,0.00,,,0.00,Rainwise IP-100,2013-08-20 07:06:00,
2013-08-20 03:11:00,63.3,62.0,29.13,SSW,202,5.0,6.0,98,0.00,,,0.00,Rainwise IP-100,2013-08-20 07:11:00,
2013-08-20 03:17:00,63.3,62.0,29.13,South,180,2.0,6.0,98,0.00,,,0.00,Rainwise IP-100,2013-08-20 07:17:00,
2013-08-20 03:22:00,63.2,62.0,29.13,SSW,202,4.0,7.0,98,0.00,,,0.00,Rainwise IP-100,2013-08-20 07:22:00,
2013-08-20 03:27:00,63.1,62.0,29.13,SSW,202,2.0,6.0,98,0.00,,,0.00,Rainwise IP-100,2013-08-20 07:27:00,
2013-08-20 03:32:00,63.1,62.0,29.13,South,180,5.0,6.0,98,0.00,,,0.00,Rainwise IP-100,2013-08-20 07:32:00,
2013-08-20 03:37:00,62.9,62.0,29.13,South,180,4.0,6.0,98,0.00,,,0.00,Rainwise IP-100,2013-08-20 07:37:00,
2013-08-20 03:42:00,62.9,62.0,29.13,South,180,5.0,8.0,98,0.00,,,0.00,Rainwise IP-100,2013-08-20 07:42:00,
2013-08-20 03:47:00,62.9,62.0,29.13,South,180,4.0,6.0,98,0.00,,,0.00,Rainwise IP-100,2013-08-20 07:47:00,
2013-08-20 03:52:00,62.9,62.0,29.13,SW,225,4.0,7.0,98,0.00,,,0.00,Rainwise IP-100,2013-08-20 07:52:00,
2013-08-20 03:57:00,62.8,62.0,29.13,SSW,202,5.0,6.0,98,0.00,,,0.00,Rainwise IP-100,2013-08-20 07:57:00,
2013-08-20 04:02:00,62.7,62.0,29.13,South,180,3.0,6.0,98,0.00,,,0.00,Rainwise IP-100,2013-08-20 08:02:00,
2013-08-20 04:07:00,62.7,62.0,29.13,SW,225,2.0,6.0,98,0.00,,,0.00,Rainwise IP-100,2013-08-20 08:07:00,
2013-08-20 04:12:00,62.6,62.0,29.13,SW,225,5.0,5.0,98,0.00,,,0.00,Rainwise IP-100,2013-08-20 08:12:00,
2013-08-20 04:18:00,62.5,62.0,29.13,SSW,202,4.0,6.0,98,0.00,,,0.00,Rainwise IP-100,2013-08-20 08:18:00,
2013-08-20 04:23:00,62.6,62.0,29.13,SW,225,5.0,6.0,98,0.00,,,0.00,Rainwise IP-100,2013-08-20 08:23:00,
2013-08-20 04:28:00,62.5,62.0,29.13,SSW,202,3.0,7.0,98,0.00,,,0.00,Rainwise IP-100,2013-08-20 08:28:00,
2013-08-20 04:33:00,62.6,62.0,29.13,South,180,1.0,6.0,98,0.00,,,0.00,Rainwise IP-100,2013-08-20 08:33:00,
2013-08-20 04:38:00,62.7,62.0,29.13,SSW,202,2.0,6.0,98,0.00,,,0.00,Rainwise IP-100,2013-08-20 08:38:00,
2013-08-20 04:43:00,62.7,62.0,29.13,SW,225,3.0,7.0,98,0.00,,,0.00,Rainwise IP-100,2013-08-20 08:43:00,
2013-08-20 04:48:00,62.7,62.0,29.13,SSW,202,4.0,6.0,98,0.00,,,0.00,Rainwise IP-100,2013-08-20 08:48:00,
2013-08-20 04:53:00,62.6,62.0,29.14,SSW,202,4.0,7.0,98,0.00,,,0.00,Rainwise IP-100,2013-08-20 08:53:00,
2013-08-20 04:58:00,62.6,62.0,29.14,SSW,202,2.0,7.0,98,0.00,,,0.00,Rainwise IP-100,2013-08-20 08:58:00,
2013-08-20 05:03:00,62.6,62.0,29.14,SW,225,3.0,8.0,98,0.00,,,0.00,Rainwise IP-100,2013-08-20 09:03:00,
2013-08-20 05:08:00,62.6,62.0,29.14,South,180,4.0,7.0,98,0.00,,,0.00,Rainwise IP-100,2013-08-20 09:08:00,
2013-08-20 05:13:00,62.6,62.0,29.14,SW,225,7.0,7.0,98,0.00,,,0.00,Rainwise IP-100,2013-08-20 09:13:00,
2013-08-20 05:19:00,62.7,62.0,29.14,SSW,202,5.0,8.0,98,0.00,,,0.00,Rainwise IP-100,2013-08-20 09:19:00,
2013-08-20 05:24:00,62.6,62.0,29.14,SSW,202,4.0,7.0,98,0.00,,,0.00,Rainwise IP-100,2013-08-20 09:24:00,
2013-08-20 05:29:00,62.6,62.0,29.14,South,180,4.0,7.0,98,0.00,,,0.00,Rainwise IP-100,2013-08-20 09:29:00,
2013-08-20 05:34:00,62.6,62.0,29.14,SW,225,2.0,7.0,98,0.00,,,0.00,Rainwise IP-100,2013-08-20 09:34:00,
2013-08-20 05:39:00,62.5,62.0,29.14,SSW,202,2.0,6.0,98,0.00,,,0.00,Rainwise IP-100,2013-08-20 09:39:00,
2013-08-20 05:44:00,62.4,62.0,29.14,SSW,202,2.0,6.0,98,0.00,,,0.00,Rainwise IP-100,2013-08-20 09:44:00,
2013-08-20 05:49:00,62.3,61.0,29.14,SSW,202,4.0,6.0,98,0.00,,,0.00,Rainwise IP-100,2013-08-20 09:49:00,
2013-08-20 05:54:00,62.3,61.0,29.14,SSW,202,4.0,6.0,98,0.00,,,0.00,Rainwise IP-100,2013-08-20 09:54:00,
2013-08-20 05:59:00,62.3,61.0,29.14,SSW,202,3.0,5.0,98,0.00,,,0.00,Rainwise IP-100,2013-08-20 09:59:00,
2013-08-20 06:04:00,62.3,61.0,29.15,SSW,202,3.0,5.0,98,0.00,,,0.00,Rainwise IP-100,2013-08-20 10:04:00,
2013-08-20 06:09:00,62.3,61.0,29.15,South,180,2.0,6.0,98,0.00,,,0.00,Rainwise IP-100,2013-08-20 10:09:00,
2013-08-20 06:14:00,62.3,61.0,29.15,SSW,202,3.0,7.0,97,0.00,,,0.00,Rainwise IP-100,2013-08-20 10:14:00,
2013-08-20 06:20:00,62.2,61.0,29.15,SSW,202,2.0,5.0,97,0.00,,,0.00,Rainwise IP-100,2013-08-20 10:20:00,
2013-08-20 06:25:00,62.1,61.0,29.15,SSW,202,2.0,6.0,97,0.00,,,0.00,Rainwise IP-100,2013-08-20 10:25:00,
2013-08-20 06:30:00,61.9,61.0,29.15,SSW,202,1.0,6.0,97,0.00,,,0.00,Rainwise IP-100,2013-08-20 10:30:00,
2013-08-20 06:35:00,62.1,61.0,29.15,SSW,202,2.0,6.0,97,0.00,,,0.00,Rainwise IP-100,2013-08-20 10:35:00,
2013-08-20 06:40:00,62.1,61.0,29.15,South,180,3.0,5.0,96,0.00,,,0.00,Rainwise IP-100,2013-08-20 10:40:00,
2013-08-20 06:45:00,62.1,61.0,29.15,SW,225,2.0,5.0,96,0.00,,,0.00,Rainwise IP-100,2013-08-20 10:45:00,
2013-08-20 06:50:00,62.1,61.0,29.16,SSW,202,2.0,6.0,96,0.00,,,0.00,Rainwise IP-100,2013-08-20 10:50:00,
2013-08-20 06:55:00,62.2,61.0,29.16,SSW,202,4.0,5.0,96,0.00,,,0.00,Rainwise IP-100,2013-08-20 10:55:00,
2013-08-20 07:00:00,62.3,61.0,29.16,SSW,202,2.0,6.0,96,0.00,,,0.00,Rainwise IP-100,2013-08-20 11:00:00,
2013-08-20 07:05:00,62.4,61.0,29.16,South,180,2.0,7.0,96,0.00,,,0.00,Rainwise IP-100,2013-08-20 11:05:00,
2013-08-20 07:10:00,62.5,61.0,29.17,SW,225,3.0,6.0,95,0.00,,,0.00,Rainwise IP-100,2013-08-20 11:10:00,
2013-08-20 07:15:00,62.7,61.0,29.17,South,180,2.0,7.0,95,0.00,,,0.00,Rainwise IP-100,2013-08-20 11:15:00,
2013-08-20 07:21:00,62.9,61.0,29.17,SSW,202,2.0,7.0,94,0.00,,,0.00,Rainwise IP-100,2013-08-20 11:21:00,
2013-08-20 07:26:00,63.3,60.0,29.18,SSW,202,6.0,7.0,92,0.00,,,0.00,Rainwise IP-100,2013-08-20 11:26:00,
2013-08-20 07:31:00,63.7,60.0,29.18,South,180,4.0,7.0,90,0.00,,,0.00,Rainwise IP-100,2013-08-20 11:31:00,
2013-08-20 07:36:00,63.9,60.0,29.19,SW,225,3.0,8.0,89,0.00,,,0.00,Rainwise IP-100,2013-08-20 11:36:00,
2013-08-20 07:41:00,64.3,60.0,29.19,SSW,202,4.0,7.0,87,0.00,,,0.00,Rainwise IP-100,2013-08-20 11:41:00,
2013-08-20 07:46:00,64.6,60.0,29.20,SW,225,2.0,11.0,86,0.00,,,0.00,Rainwise IP-100,2013-08-20 11:46:00,
2013-08-20 07:51:00,64.9,60.0,29.20,SW,225,4.0,7.0,86,0.00,,,0.00,Rainwise IP-100,2013-08-20 11:51:00,
2013-08-20 07:56:00,65.2,60.0,29.21,SW,225,5.0,7.0,85,0.00,,,0.00,Rainwise IP-100,2013-08-20 11:56:00,
2013-08-20 08:01:00,65.6,61.0,29.21,SW,225,4.0,9.0,85,0.00,,,0.00,Rainwise IP-100,2013-08-20 12:01:00,
2013-08-20 08:06:00,65.9,60.0,29.21,South,180,8.0,11.0,83,0.00,,,0.00,Rainwise IP-100,2013-08-20 12:06:00,
2013-08-20 08:11:00,66.1,61.0,29.22,South,180,5.0,9.0,84,0.00,,,0.00,Rainwise IP-100,2013-08-20 12:11:00,
2013-08-20 08:16:00,66.4,61.0,29.22,SW,225,6.0,9.0,84,0.00,,,0.00,Rainwise IP-100,2013-08-20 12:16:00,
2013-08-20 08:22:00,66.7,61.0,29.23,SSW,202,8.0,8.0,83,0.00,,,0.00,Rainwise IP-100,2013-08-20 12:22:00,
2013-08-20 08:27:00,67.1,61.0,29.23,SSW,202,2.0,9.0,82,0.00,,,0.00,Rainwise IP-100,2013-08-20 12:27:00,
2013-08-20 08:32:00,67.4,61.0,29.23,SW,225,2.0,9.0,81,0.00,,,0.00,Rainwise IP-100,2013-08-20 12:32:00,
2013-08-20 08:37:00,67.6,62.0,29.24,South,180,4.0,6.0,82,0.00,,,0.00,Rainwise IP-100,2013-08-20 12:37:00,
2013-08-20 08:42:00,68.1,61.0,29.24,SW,225,7.0,7.0,80,0.00,,,0.00,Rainwise IP-100,2013-08-20 12:42:00,
2013-08-20 08:47:00,68.3,62.0,29.25,SW,225,4.0,7.0,81,0.00,,,0.00,Rainwise IP-100,2013-08-20 12:47:00,
2013-08-20 08:52:00,68.4,62.0,29.25,SSW,202,6.0,9.0,81,0.00,,,0.00,Rainwise IP-100,2013-08-20 12:52:00,
2013-08-20 08:57:00,68.6,62.0,29.25,SW,225,3.0,12.0,81,0.00,,,0.00,Rainwise IP-100,2013-08-20 12:57:00,
2013-08-20 09:02:00,68.9,63.0,29.25,WSW,247,7.0,9.0,81,0.00,,,0.00,Rainwise IP-100,2013-08-20 13:02:00,
2013-08-20 09:07:00,68.9,63.0,29.25,SW,225,5.0,11.0,81,0.00,,,0.00,Rainwise IP-100,2013-08-20 13:07:00,
2013-08-20 09:12:00,69.3,64.0,29.25,SW,225,4.0,9.0,83,0.00,,,0.00,Rainwise IP-100,2013-08-20 13:12:00,
2013-08-20 09:17:00,69.7,64.0,29.26,WSW,247,5.0,10.0,82,0.00,,,0.00,Rainwise IP-100,2013-08-20 13:17:00,
2013-08-20 09:23:00,69.9,64.0,29.26,SSW,202,3.0,9.0,82,0.00,,,0.00,Rainwise IP-100,2013-08-20 13:23:00,
2013-08-20 09:28:00,70.5,63.0,29.26,SW,225,4.0,10.0,79,0.00,,,0.00,Rainwise IP-100,2013-08-20 13:28:00,
2013-08-20 09:33:00,70.6,64.0,29.26,SW,225,9.0,9.0,81,0.00,,,0.00,Rainwise IP-100,2013-08-20 13:33:00,
2013-08-20 09:38:00,70.9,65.0,29.26,WSW,247,4.0,10.0,81,0.00,,,0.00,Rainwise IP-100,2013-08-20 13:38:00,
2013-08-20 09:43:00,71.1,64.0,29.26,WSW,247,3.0,11.0,80,0.00,,,0.00,Rainwise IP-100,2013-08-20 13:43:00,
2013-08-20 09:48:00,71.6,65.0,29.26,SW,225,4.0,12.0,81,0.00,,,0.00,Rainwise IP-100,2013-08-20 13:48:00,
2013-08-20 09:53:00,71.7,65.0,29.27,SW,225,6.0,10.0,80,0.00,,,0.00,Rainwise IP-100,2013-08-20 13:53:00,
2013-08-20 09:58:00,71.9,65.0,29.27,SW,225,6.0,12.0,79,0.00,,,0.00,Rainwise IP-100,2013-08-20 13:58:00,
2013-08-20 10:03:00,72.1,65.0,29.27,SSW,202,7.0,12.0,79,0.00,,,0.00,Rainwise IP-100,2013-08-20 14:03:00,
2013-08-20 10:08:00,72.6,65.0,29.27,SW,225,8.0,12.0,78,0.00,,,0.00,Rainwise IP-100,2013-08-20 14:08:00,
2013-08-20 10:13:00,72.8,66.0,29.27,SW,225,5.0,11.0,79,0.00,,,0.00,Rainwise IP-100,2013-08-20 14:13:00,
2013-08-20 10:18:00,73.1,65.0,29.27,SW,225,4.0,10.0,77,0.00,,,0.00,Rainwise IP-100,2013-08-20 14:18:00,
2013-08-20 10:24:00,73.7,66.0,29.27,South,180,7.0,12.0,77,0.00,,,0.00,Rainwise IP-100,2013-08-20 14:24:00,
2013-08-20 10:29:00,74.0,66.0,29.27,WSW,247,2.0,10.0,77,0.00,,,0.00,Rainwise IP-100,2013-08-20 14:29:00,
2013-08-20 10:34:00,74.5,66.0,29.28,West,270,4.0,8.0,76,0.00,,,0.00,Rainwise IP-100,2013-08-20 14:34:00,
2013-08-20 10:39:00,74.7,66.0,29.28,SW,225,6.0,9.0,74,0.00,,,0.00,Rainwise IP-100,2013-08-20 14:39:00,
2013-08-20 10:44:00,74.7,66.0,29.28,South,180,6.0,8.0,74,0.00,,,0.00,Rainwise IP-100,2013-08-20 14:44:00,
2013-08-20 10:49:00,75.3,67.0,29.28,West,270,3.0,9.0,77,0.00,,,0.00,Rainwise IP-100,2013-08-20 14:49:00,
2013-08-20 10:54:00,75.5,66.0,29.29,SW,225,5.0,10.0,74,0.00,,,0.00,Rainwise IP-100,2013-08-20 14:54:00,
2013-08-20 10:59:00,75.9,66.0,29.29,SW,225,4.0,8.0,73,0.00,,,0.00,Rainwise IP-100,2013-08-20 14:59:00,
2013-08-20 11:04:00,76.3,65.0,29.29,SW,225,4.0,8.0,69,0.00,,,0.00,Rainwise IP-100,2013-08-20 15:04:00,
2013-08-20 11:09:00,76.9,67.0,29.29,SSW,202,6.0,9.0,72,0.00,,,0.00,Rainwise IP-100,2013-08-20 15:09:00,
2013-08-20 11:14:00,76.7,66.0,29.29,South,180,8.0,8.0,69,0.00,,,0.00,Rainwise IP-100,2013-08-20 15:14:00,
2013-08-20 11:19:00,76.9,64.0,29.29,SW,225,2.0,12.0,65,0.00,,,0.00,Rainwise IP-100,2013-08-20 15:19:00,
2013-08-20 11:25:00,77.2,67.0,29.29,SW,225,6.0,9.0,71,0.00,,,0.00,Rainwise IP-100,2013-08-20 15:25:00,
2013-08-20 11:30:00,77.1,66.0,29.29,West,270,4.0,9.0,68,0.00,,,0.00,Rainwise IP-100,2013-08-20 15:30:00,
2013-08-20 11:35:00,77.3,66.0,29.29,WSW,247,7.0,9.0,67,0.00,,,0.00,Rainwise IP-100,2013-08-20 15:35:00,
2013-08-20 11:40:00,77.4,66.0,29.29,SW,225,9.0,10.0,69,0.00,,,0.00,Rainwise IP-100,2013-08-20 15:40:00,
2013-08-20 11:45:00,77.9,66.0,29.29,SW,225,4.0,9.0,67,0.00,,,0.00,Rainwise IP-100,2013-08-20 15:45:00,
2013-08-20 11:50:00,77.9,65.0,29.29,WSW,247,5.0,9.0,65,0.00,,,0.00,Rainwise IP-100,2013-08-20 15:50:00,
2013-08-20 11:55:00,78.1,65.0,29.30,West,270,4.0,10.0,64,0.00,,,0.00,Rainwise IP-100,2013-08-20 15:55:00,
2013-08-20 12:00:00,78.1,66.0,29.30,WNW,292,4.0,11.0,68,0.00,,,0.00,Rainwise IP-100,2013-08-20 16:00:00,
2013-08-20 12:05:00,78.8,64.0,29.30,SW,225,4.0,7.0,62,0.00,,,0.00,Rainwise IP-100,2013-08-20 16:05:00,
2013-08-20 12:10:00,79.1,66.0,29.30,SW,225,4.0,9.0,65,0.00,,,0.00,Rainwise IP-100,2013-08-20 16:10:00,
2013-08-20 12:15:00,78.6,64.0,29.30,West,270,2.0,10.0,62,0.00,,,0.00,Rainwise IP-100,2013-08-20 16:15:00,
2013-08-20 12:20:00,78.9,67.0,29.30,SSW,202,8.0,9.0,67,0.00,,,0.00,Rainwise IP-100,2013-08-20 16:20:00,
2013-08-20 12:26:00,79.3,64.0,29.30,SW,225,6.0,10.0,60,0.00,,,0.00,Rainwise IP-100,2013-08-20 16:26:00,
2013-08-20 12:31:00,78.7,63.0,29.30,WSW,247,6.0,12.0,60,0.00,,,0.00,Rainwise IP-100,2013-08-20 16:31:00,
2013-08-20 12:36:00,78.8,63.0,29.29,SW,225,3.0,9.0,59,0.00,,,0.00,Rainwise IP-100,2013-08-20 16:36:00,
2013-08-20 12:41:00,78.9,64.0,29.29,WSW,247,7.0,11.0,60,0.00,,,0.00,Rainwise IP-100,2013-08-20 16:41:00,
2013-08-20 12:46:00,79.2,63.0,29.29,SSW,202,7.0,11.0,57,0.00,,,0.00,Rainwise IP-100,2013-08-20 16:46:00,
2013-08-20 12:51:00,79.3,61.0,29.29,WSW,247,9.0,15.0,53,0.00,,,0.00,Rainwise IP-100,2013-08-20 16:51:00,
2013-08-20 12:56:00,79.3,65.0,29.29,West,270,2.0,11.0,61,0.00,,,0.00,Rainwise IP-100,2013-08-20 16:56:00,
2013-08-20 13:01:00,79.7,64.0,29.29,WSW,247,4.0,9.0,59,0.00,,,0.00,Rainwise IP-100,2013-08-20 17:01:00,
2013-08-20 13:06:00,79.7,62.0,29.29,WSW,247,5.0,10.0,56,0.00,,,0.00,Rainwise IP-100,2013-08-20 17:06:00,
2013-08-20 13:11:00,79.8,62.0,29.29,WSW,247,2.0,11.0,56,0.00,,,0.00,Rainwise IP-100,2013-08-20 17:11:00,
2013-08-20 13:16:00,79.8,62.0,29.29,SW,225,4.0,11.0,56,0.00,,,0.00,Rainwise IP-100,2013-08-20 17:16:00,
2013-08-20 13:21:00,79.3,64.0,29.29,WSW,247,6.0,11.0,59,0.00,,,0.00,Rainwise IP-100,2013-08-20 17:21:00,
2013-08-20 13:27:00,79.5,63.0,29.29,WNW,292,2.0,8.0,58,0.00,,,0.00,Rainwise IP-100,2013-08-20 17:27:00,
2013-08-20 13:32:00,79.5,64.0,29.29,West,270,4.0,11.0,60,0.00,,,0.00,Rainwise IP-100,2013-08-20 17:32:00,
2013-08-20 13:37:00,79.9,64.0,29.29,WSW,247,7.0,12.0,58,0.00,,,0.00,Rainwise IP-100,2013-08-20 17:37:00,
2013-08-20 13:42:00,79.9,62.0,29.29,SW,225,7.0,12.0,55,0.00,,,0.00,Rainwise IP-100,2013-08-20 17:42:00,
2013-08-20 13:47:00,80.0,64.0,29.29,SW,225,2.0,10.0,58,0.00,,,0.00,Rainwise IP-100,2013-08-20 17:47:00,
2013-08-20 13:52:00,79.8,63.0,29.29,NW,315,4.0,8.0,58,0.00,,,0.00,Rainwise IP-100,2013-08-20 17:52:00,
2013-08-20 13:57:00,80.4,63.0,29.29,West,270,6.0,7.0,56,0.00,,,0.00,Rainwise IP-100,2013-08-20 17:57:00,
2013-08-20 14:02:00,79.9,62.0,29.29,SW,225,6.0,11.0,54,0.00,,,0.00,Rainwise IP-100,2013-08-20 18:02:00,
2013-08-20 14:07:00,80.7,63.0,29.29,South,180,6.0,9.0,55,0.00,,,0.00,Rainwise IP-100,2013-08-20 18:07:00,
2013-08-20 14:12:00,80.9,64.0,29.29,WNW,292,4.0,11.0,56,0.00,,,0.00,Rainwise IP-100,2013-08-20 18:12:00,
2013-08-20 14:17:00,80.6,63.0,29.29,West,270,3.0,8.0,55,0.00,,,0.00,Rainwise IP-100,2013-08-20 18:17:00,
2013-08-20 14:22:00,80.6,65.0,29.29,South,180,6.0,7.0,59,0.00,,,0.00,Rainwise IP-100,2013-08-20 18:22:00,
2013-08-20 14:28:00,80.3,64.0,29.29,WSW,247,6.0,9.0,58,0.00,,,0.00,Rainwise IP-100,2013-08-20 18:28:00,
2013-08-20 14:33:00,80.0,64.0,29.29,WSW,247,4.0,11.0,59,0.00,,,0.00,Rainwise IP-100,2013-08-20 18:33:00,
2013-08-20 14:38:00,79.8,63.0,29.28,SW,225,6.0,9.0,57,0.00,,,0.00,Rainwise IP-100,2013-08-20 18:38:00,
2013-08-20 14:43:00,80.4,63.0,29.28,WSW,247,1.0,11.0,56,0.00,,,0.00,Rainwise IP-100,2013-08-20 18:43:00,
2013-08-20 14:48:00,79.9,64.0,29.29,WSW,247,2.0,11.0,59,0.00,,,0.00,Rainwise IP-100,2013-08-20 18:48:00,
2013-08-20 14:53:00,80.7,62.0,29.28,South,180,4.0,11.0,54,0.00,,,0.00,Rainwise IP-100,2013-08-20 18:53:00,
2013-08-20 14:58:00,80.3,64.0,29.28,SW,225,6.0,10.0,58,0.00,,,0.00,Rainwise IP-100,2013-08-20 18:58:00,
2013-08-20 15:03:00,80.8,66.0,29.28,SSW,202,6.0,10.0,61,0.00,,,0.00,Rainwise IP-100,2013-08-20 19:03:00,
2013-08-20 15:08:00,80.8,63.0,29.29,SSW,202,5.0,9.0,56,0.00,,,0.00,Rainwise IP-100,2013-08-20 19:08:00,
2013-08-20 15:13:00,80.4,64.0,29.29,South,180,7.0,11.0,57,0.00,,,0.00,Rainwise IP-100,2013-08-20 19:13:00,
2013-08-20 15:18:00,80.9,65.0,29.29,SW,225,7.0,11.0,58,0.00,,,0.00,Rainwise IP-100,2013-08-20 19:18:00,
2013-08-20 15:23:00,81.2,63.0,29.29,SSW,202,6.0,13.0,55,0.00,,,0.00,Rainwise IP-100,2013-08-20 19:23:00,
2013-08-20 15:29:00,80.8,63.0,29.28,SW,225,5.0,12.0,56,0.00,,,0.00,Rainwise IP-100,2013-08-20 19:29:00,
2013-08-20 15:34:00,80.5,64.0,29.28,SW,225,6.0,10.0,57,0.00,,,0.00,Rainwise IP-100,2013-08-20 19:34:00,
2013-08-20 15:39:00,80.5,64.0,29.28,WNW,292,7.0,12.0,57,0.00,,,0.00,Rainwise IP-100,2013-08-20 19:39:00,
2013-08-20 15:44:00,80.6,64.0,29.28,SW,225,4.0,11.0,57,0.00,,,0.00,Rainwise IP-100,2013-08-20 19:44:00,
2013-08-20 15:49:00,80.5,63.0,29.28,WSW,247,5.0,13.0,56,0.00,,,0.00,Rainwise IP-100,2013-08-20 19:49:00,
2013-08-20 15:54:00,80.5,63.0,29.28,SW,225,2.0,9.0,56,0.00,,,0.00,Rainwise IP-100,2013-08-20 19:54:00,
2013-08-20 15:59:00,80.6,63.0,29.28,SW,225,7.0,10.0,56,0.00,,,0.00,Rainwise IP-100,2013-08-20 19:59:00,
2013-08-20 16:04:00,80.8,63.0,29.28,SSW,202,7.0,10.0,56,0.00,,,0.00,Rainwise IP-100,2013-08-20 20:04:00,
2013-08-20 16:09:00,80.5,63.0,29.28,WSW,247,8.0,12.0,56,0.00,,,0.00,Rainwise IP-100,2013-08-20 20:09:00,
2013-08-20 16:14:00,80.5,64.0,29.28,SW,225,9.0,12.0,58,0.00,,,0.00,Rainwise IP-100,2013-08-20 20:14:00,
2013-08-20 16:19:00,80.1,63.0,29.27,WSW,247,7.0,12.0,56,0.00,,,0.00,Rainwise IP-100,2013-08-20 20:19:00,
2013-08-20 16:24:00,80.5,64.0,29.27,SSW,202,6.0,9.0,58,0.00,,,0.00,Rainwise IP-100,2013-08-20 20:24:00,
2013-08-20 16:30:00,80.9,64.0,29.27,SW,225,3.0,11.0,57,0.00,,,0.00,Rainwise IP-100,2013-08-20 20:30:00,
2013-08-20 16:35:00,80.7,64.0,29.27,West,270,4.0,14.0,57,0.00,,,0.00,Rainwise IP-100,2013-08-20 20:35:00,
2013-08-20 16:40:00,80.2,64.0,29.27,SW,225,9.0,12.0,58,0.00,,,0.00,Rainwise IP-100,2013-08-20 20:40:00,
2013-08-20 16:45:00,80.2,63.0,29.27,SW,225,5.0,12.0,57,0.00,,,0.00,Rainwise IP-100,2013-08-20 20:45:00,
2013-08-20 16:50:00,80.4,65.0,29.27,SW,225,7.0,9.0,59,0.00,,,0.00,Rainwise IP-100,2013-08-20 20:50:00,
2013-08-20 16:55:00,80.4,65.0,29.27,SSW,202,9.0,10.0,59,0.00,,,0.00,Rainwise IP-100,2013-08-20 20:55:00,
2013-08-20 17:00:00,80.1,64.0,29.27,SW,225,4.0,11.0,59,0.00,,,0.00,Rainwise IP-100,2013-08-20 21:00:00,
2013-08-20 17:05:00,79.9,63.0,29.27,SW,225,7.0,10.0,57,0.00,,,0.00,Rainwise IP-100,2013-08-20 21:05:00,
2013-08-20 17:10:00,79.9,63.0,29.27,SW,225,6.0,11.0,56,0.00,,,0.00,Rainwise IP-100,2013-08-20 21:10:00,
2013-08-20 17:15:00,80.3,63.0,29.27,SW,225,3.0,10.0,57,0.00,,,0.00,Rainwise IP-100,2013-08-20 21:15:00,
2013-08-20 17:20:00,80.4,63.0,29.27,SSW,202,6.0,8.0,56,0.00,,,0.00,Rainwise IP-100,2013-08-20 21:20:00,
2013-08-20 17:25:00,79.9,62.0,29.27,SW,225,8.0,8.0,55,0.00,,,0.00,Rainwise IP-100,2013-08-20 21:25:00,
2013-08-20 17:31:00,80.1,63.0,29.27,SSW,202,5.0,13.0,57,0.00,,,0.00,Rainwise IP-100,2013-08-20 21:31:00,
2013-08-20 17:36:00,80.2,63.0,29.27,WSW,247,4.0,10.0,57,0.00,,,0.00,Rainwise IP-100,2013-08-20 21:36:00,
2013-08-20 17:41:00,79.8,63.0,29.27,SW,225,4.0,7.0,57,0.00,,,0.00,Rainwise IP-100,2013-08-20 21:41:00,
2013-08-20 17:46:00,79.5,63.0,29.27,SW,225,6.0,12.0,57,0.00,,,0.00,Rainwise IP-100,2013-08-20 21:46:00,
2013-08-20 17:51:00,79.4,63.0,29.27,SSW,202,4.0,9.0,57,0.00,,,0.00,Rainwise IP-100,2013-08-20 21:51:00,
2013-08-20 17:56:00,79.3,63.0,29.27,SW,225,3.0,8.0,58,0.00,,,0.00,Rainwise IP-100,2013-08-20 21:56:00,
2013-08-20 18:01:00,79.9,63.0,29.27,SSW,202,6.0,6.0,56,0.00,,,0.00,Rainwise IP-100,2013-08-20 22:01:00,
2013-08-20 18:06:00,79.8,62.0,29.27,SW,225,4.0,8.0,56,0.00,,,0.00,Rainwise IP-100,2013-08-20 22:06:00,
2013-08-20 18:11:00,79.7,63.0,29.27,South,180,2.0,6.0,57,0.00,,,0.00,Rainwise IP-100,2013-08-20 22:11:00,
2013-08-20 18:16:00,79.5,63.0,29.27,SW,225,2.0,7.0,57,0.00,,,0.00,Rainwise IP-100,2013-08-20 22:16:00,
2013-08-20 18:21:00,79.4,63.0,29.26,SW,225,2.0,7.0,57,0.00,,,0.00,Rainwise IP-100,2013-08-20 22:21:00,
2013-08-20 18:26:00,78.9,63.0,29.26,SW,225,2.0,7.0,58,0.00,,,0.00,Rainwise IP-100,2013-08-20 22:26:00,
2013-08-20 18:32:00,78.7,63.0,29.26,SW,225,3.0,7.0,59,0.00,,,0.00,Rainwise IP-100,2013-08-20 22:32:00,
2013-08-20 18:37:00,78.8,63.0,29.26,SW,225,5.0,7.0,59,0.00,,,0.00,Rainwise IP-100,2013-08-20 22:37:00,
2013-08-20 18:42:00,78.6,62.0,29.26,SSW,202,2.0,7.0,58,0.00,,,0.00,Rainwise IP-100,2013-08-20 22:42:00,
2013-08-20 18:47:00,78.5,63.0,29.25,SW,225,4.0,7.0,60,0.00,,,0.00,Rainwise IP-100,2013-08-20 22:47:00,
2013-08-20 18:52:00,78.5,64.0,29.25,SSW,202,2.0,7.0,61,0.00,,,0.00,Rainwise IP-100,2013-08-20 22:52:00,
2013-08-20 18:57:00,78.3,64.0,29.25,SW,225,1.0,5.0,61,0.00,,,0.00,Rainwise IP-100,2013-08-20 22:57:00,
2013-08-20 19:02:00,77.9,63.0,29.25,SW,225,2.0,6.0,61,0.00,,,0.00,Rainwise IP-100,2013-08-20 23:02:00,
2013-08-20 19:07:00,77.9,64.0,29.25,SW,225,2.0,5.0,62,0.00,,,0.00,Rainwise IP-100,2013-08-20 23:07:00,
2013-08-20 19:12:00,77.8,64.0,29.25,SSW,202,2.0,4.0,63,0.00,,,0.00,Rainwise IP-100,2013-08-20 23:12:00,
2013-08-20 19:17:00,77.3,64.0,29.25,SW,225,1.0,3.0,64,0.00,,,0.00,Rainwise IP-100,2013-08-20 23:17:00,
2013-08-20 19:22:00,76.9,63.0,29.25,SW,225,2.0,4.0,63,0.00,,,0.00,Rainwise IP-100,2013-08-20 23:22:00,
2013-08-20 19:27:00,76.8,64.0,29.24,SSW,202,2.0,4.0,64,0.00,,,0.00,Rainwise IP-100,2013-08-20 23:27:00,
2013-08-20 19:33:00,76.3,63.0,29.24,SSW,202,2.0,4.0,65,0.00,,,0.00,Rainwise IP-100,2013-08-20 23:33:00,
2013-08-20 19:38:00,75.8,63.0,29.23,SSW,202,2.0,4.0,66,0.00,,,0.00,Rainwise IP-100,2013-08-20 23:38:00,
2013-08-20 19:43:00,75.4,64.0,29.23,SSW,202,2.0,4.0,67,0.00,,,0.00,Rainwise IP-100,2013-08-20 23:43:00,
2013-08-20 19:48:00,74.9,63.0,29.23,SSW,202,1.0,5.0,67,0.00,,,0.00,Rainwise IP-100,2013-08-20 23:48:00,
2013-08-20 19:53:00,74.5,64.0,29.23,SW,225,2.0,5.0,69,0.00,,,0.00,Rainwise IP-100,2013-08-20 23:53:00,
2013-08-20 19:58:00,73.9,64.0,29.22,SSW,202,4.0,4.0,70,0.00,,,0.00,Rainwise IP-100,2013-08-20 23:58:00,
2013-08-20 20:03:00,73.4,63.0,29.22,SSW,202,3.0,4.0,71,0.00,,,0.00,Rainwise IP-100,2013-08-21 00:03:00,
2013-08-20 20:08:00,72.9,63.0,29.22,South,180,5.0,6.0,72,0.00,,,0.00,Rainwise IP-100,2013-08-21 00:08:00,
2013-08-20 20:13:00,72.8,63.0,29.21,SSW,202,2.0,7.0,73,0.00,,,0.00,Rainwise IP-100,2013-08-21 00:13:00,
2013-08-20 20:18:00,72.5,64.0,29.22,SSW,202,6.0,6.0,75,0.00,,,0.00,Rainwise IP-100,2013-08-21 00:18:00,
2013-08-20 20:23:00,72.2,65.0,29.21,SSW,202,5.0,6.0,77,0.00,,,0.00,Rainwise IP-100,2013-08-21 00:23:00,
2013-08-20 20:28:00,71.9,65.0,29.21,South,180,6.0,6.0,78,0.00,,,0.00,Rainwise IP-100,2013-08-21 00:28:00,
2013-08-20 20:34:00,71.6,65.0,29.21,SSW,202,4.0,7.0,79,0.00,,,0.00,Rainwise IP-100,2013-08-21 00:34:00,
2013-08-20 20:39:00,71.4,64.0,29.21,SW,225,4.0,7.0,79,0.00,,,0.00,Rainwise IP-100,2013-08-21 00:39:00,
2013-08-20 20:44:00,71.3,65.0,29.21,South,180,5.0,7.0,80,0.00,,,0.00,Rainwise IP-100,2013-08-21 00:44:00,
2013-08-20 20:49:00,71.1,64.0,29.22,SSW,202,3.0,9.0,80,0.00,,,0.00,Rainwise IP-100,2013-08-21 00:49:00,
2013-08-20 20:54:00,70.9,64.0,29.21,SSW,202,3.0,7.0,80,0.00,,,0.00,Rainwise IP-100,2013-08-21 00:54:00,
2013-08-20 20:59:00,70.7,64.0,29.22,South,180,6.0,7.0,81,0.00,,,0.00,Rainwise IP-100,2013-08-21 00:59:00,
2013-08-20 21:04:00,70.5,65.0,29.22,SSW,202,4.0,6.0,82,0.00,,,0.00,Rainwise IP-100,2013-08-21 01:04:00,
2013-08-20 21:09:00,70.4,65.0,29.22,WSW,247,4.0,8.0,82,0.00,,,0.00,Rainwise IP-100,2013-08-21 01:09:00,
2013-08-20 21:14:00,70.2,64.0,29.22,South,180,4.0,7.0,83,0.00,,,0.00,Rainwise IP-100,2013-08-21 01:14:00,
2013-08-20 21:19:00,70.2,64.0,29.22,SSW,202,2.0,7.0,83,0.00,,,0.00,Rainwise IP-100,2013-08-21 01:19:00,
2013-08-20 21:24:00,70.0,65.0,29.22,SSW,202,4.0,9.0,84,0.00,,,0.00,Rainwise IP-100,2013-08-21 01:24:00,
2013-08-20 21:29:00,69.8,64.0,29.22,South,180,4.0,5.0,84,0.00,,,0.00,Rainwise IP-100,2013-08-21 01:29:00,
2013-08-20 21:35:00,69.6,65.0,29.22,South,180,6.0,6.0,85,0.00,,,0.00,Rainwise IP-100,2013-08-21 01:35:00,
2013-08-20 21:40:00,69.5,65.0,29.21,SW,225,4.0,7.0,85,0.00,,,0.00,Rainwise IP-100,2013-08-21 01:40:00,
2013-08-20 21:45:00,69.3,65.0,29.21,SSW,202,4.0,7.0,86,0.00,,,0.00,Rainwise IP-100,2013-08-21 01:45:00,
2013-08-20 21:50:00,69.2,65.0,29.21,SSW,202,5.0,8.0,86,0.00,,,0.00,Rainwise IP-100,2013-08-21 01:50:00,
2013-08-20 21:55:00,69.1,64.0,29.21,SSW,202,6.0,7.0,86,0.00,,,0.00,Rainwise IP-100,2013-08-21 01:55:00,
2013-08-20 22:00:00,69.0,65.0,29.21,SSW,202,4.0,7.0,87,0.00,,,0.00,Rainwise IP-100,2013-08-21 02:00:00,
2013-08-20 22:05:00,68.9,65.0,29.21,SSW,202,3.0,7.0,87,0.00,,,0.00,Rainwise IP-100,2013-08-21 02:05:00,
2013-08-20 22:10:00,68.7,65.0,29.22,SSW,202,4.0,7.0,88,0.00,,,0.00,Rainwise IP-100,2013-08-21 02:10:00,
2013-08-20 22:15:00,68.6,65.0,29.21,SSW,202,4.0,7.0,88,0.00,,,0.00,Rainwise IP-100,2013-08-21 02:15:00,
2013-08-20 22:20:00,68.5,65.0,29.21,SSW,202,6.0,9.0,89,0.00,,,0.00,Rainwise IP-100,2013-08-21 02:20:00,
2013-08-20 22:25:00,68.4,65.0,29.21,SSW,202,6.0,9.0,89,0.00,,,0.00,Rainwise IP-100,2013-08-21 02:25:00,
2013-08-20 22:30:00,68.4,65.0,29.21,South,180,4.0,7.0,89,0.00,,,0.00,Rainwise IP-100,2013-08-21 02:30:00,
2013-08-20 22:36:00,68.4,65.0,29.22,SSW,202,2.0,6.0,89,0.00,,,0.00,Rainwise IP-100,2013-08-21 02:36:00,
2013-08-20 22:41:00,68.4,65.0,29.22,SSW,202,6.0,8.0,89,0.00,,,0.00,Rainwise IP-100,2013-08-21 02:41:00,
2013-08-20 22:46:00,68.3,64.0,29.22,SSW,202,4.0,8.0,89,0.00,,,0.00,Rainwise IP-100,2013-08-21 02:46:00,
2013-08-20 22:51:00,68.3,65.0,29.22,SW,225,2.0,8.0,90,0.00,,,0.00,Rainwise IP-100,2013-08-21 02:51:00,
2013-08-20 22:56:00,68.2,65.0,29.22,SW,225,6.0,7.0,90,0.00,,,0.00,Rainwise IP-100,2013-08-21 02:56:00,
2013-08-20 23:01:00,68.2,65.0,29.22,SW,225,4.0,7.0,90,0.00,,,0.00,Rainwise IP-100,2013-08-21 03:01:00,
2013-08-20 23:06:00,68.1,65.0,29.22,SSW,202,4.0,8.0,90,0.00,,,0.00,Rainwise IP-100,2013-08-21 03:06:00,
2013-08-20 23:11:00,68.1,65.0,29.22,SSW,202,4.0,8.0,90,0.00,,,0.00,Rainwise IP-100,2013-08-21 03:11:00,
2013-08-20 23:16:00,68.1,65.0,29.22,SW,225,3.0,6.0,90,0.00,,,0.00,Rainwise IP-100,2013-08-21 03:16:00,
2013-08-20 23:21:00,67.9,65.0,29.22,SSW,202,4.0,7.0,90,0.00,,,0.00,Rainwise IP-100,2013-08-21 03:21:00,
2013-08-20 23:26:00,67.9,64.0,29.22,South,180,5.0,8.0,89,0.00,,,0.00,Rainwise IP-100,2013-08-21 03:26:00,
2013-08-20 23:31:00,67.8,64.0,29.22,SSW,202,4.0,7.0,89,0.00,,,0.00,Rainwise IP-100,2013-08-21 03:31:00,
2013-08-20 23:37:00,67.7,64.0,29.22,SW,225,4.0,7.0,89,0.00,,,0.00,Rainwise IP-100,2013-08-21 03:37:00,
2013-08-20 23:42:00,67.6,64.0,29.22,SSW,202,4.0,7.0,89,0.00,,,0.00,Rainwise IP-100,2013-08-21 03:42:00,
2013-08-20 23:47:00,67.5,64.0,29.22,SSW,202,3.0,9.0,88,0.00,,,0.00,Rainwise IP-100,2013-08-21 03:47:00,
2013-08-20 23:52:00,67.4,64.0,29.22,SW,225,4.0,7.0,89,0.00,,,0.00,Rainwise IP-100,2013-08-21 03:52:00,
2013-08-20 23:57:00,67.3,64.0,29.22,SW,225,3.0,7.0,89,0.00,,,0.00,Rainwise IP-100,2013-08-21 03:57:00,